Погода в Елани

Россия / Свердловская область     56°52′27″N   64°02′20″E
темп.,
°C
ветер,
м/с
пор.,
м/с
влажн.,
%
обл.,
%
осадки,
мм/ч
давл.,
гПа
погр.,
м
11 апреля, вс
вс1123:00+2ю412915 0.0 1037311
02:00+1ю5139211 0.0 1037325
05:00+1ю4139596 0.0 1037355
08:00+3ююз51492100 0.0 1037398
11:00+7ююз61384100 0.0 1036502
14:00+10ююз61278100 0.0 1035636
17:00+9ююз6138185 0.0 1034603
20:00+7ююз5138954 0.0 1033396
12 апреля, пн
пн1223:00+5юз4129199 0.0 1033273
02:00+5юз389593 0.0 1033162
05:00+6з2694100 0.0 1034138
08:00+7сз2794100 0.0 1034317
11:00+8ссз2484100 0.0 1036503
14:00+11с3459100 0.0 1036820
17:00+11с3463100 0.0 10371043
20:00+8ссз2281100 0.0 103828
13 апреля, вт
вт1323:00+6ссв2276100 0.0 103927
02:00+4св11735 0.0 104010
05:00+3вюв11785 0.0 104010
08:00+6ю12765 0.0 1040110
11:00+10ююз34604 0.0 1039621
14:00+13ююз45540 0.0 1037941
17:00+14юз46570 0.0 1035971
20:00+10ююз37785 0.0 1034130
14 апреля, ср
ср1423:00+8ююз3108599 0.0 1033185
02:00+8юз3109163 0.0 1032227
05:00+7юз3109311 0.0 1031207
08:00+9юз37865 0.0 1030219
11:00+14зюз356549 0.0 1028600
14:00+17юз465111 0.0 10271085
17:00+17зюз47435 0.0 10251244
20:00+12юз38665 0.0 1023137
15 апреля, чт
чт1523:00+9зюз38725 0.0 1023135
02:00+7зюз35735 0.0 102289
05:00+6зюз36788 0.0 1021100
08:00+9зюз386810 0.0 1020207
11:00+15зюз46505 0.0 1019610
14:00+17зюз45435 0.0 10171099
17:00+18зюз34430 0.0 10161176
20:00+13юз34645 0.0 101551